{"data":{"norad_id":68517,"epoch":"2026-05-25T03:42:17.224128Z","epoch_age_seconds":71960,"freshness":"FRESH","line1":"1 68517U 26068K   26145.15436602  .00057030  00000+0  13080-2 0  9992","line2":"2 68517  53.1584 134.0070 0001307  83.9604 276.1551 15.42211305  8651","mean_motion":15.42211305,"eccentricity":0.0001307,"inclination_deg":53.1584,"raan_deg":134.007,"arg_perigee_deg":83.9604,"mean_anomaly_deg":276.1551,"bstar":0.001308,"rev_number":865,"period_min":93.3724188982,"perigee_km":438.69336912992,"apogee_km":440.47552151573,"semimajor_km":6817.7214453228,"source":"CELESTRAK","updated_at":"2026-05-25T13:38:21.954314Z"}}